GW0979 Weather Reports


Display with metric or nautical units.
time (UTC)temp
F
wind
direction
speed
MPH
gust
MPH
rain 1hr
in
rain 24hr
in
rain mn
in
humidity
%
barometer
mb
20260504120220 43 185 0.0 0.0 0.00 0.00 0.00 93 1006.1
20260504110647 42 183 0.0 0.0 0.00 0.00 0.00 95 1006.5
20260504110143 42 182 0.0 0.0 0.00 0.00 0.00 95 1006.4
20260504100609 41 176 0.0 0.0 0.00 0.00 0.00 94 1006.7
20260504100107 41 176 0.0 0.0 0.00 0.00 0.00 94 1006.6
20260504082003 40 177 0.0 0.0 0.00 0.00 0.00 90 1006.9
20260504081500 40 176 0.0 0.0 0.00 0.00 0.00 91 1006.9
20260504080955 39 177 0.0 0.0 0.00 0.00 0.00 92 1006.9
20260504080452 39 177 0.0 0.0 0.00 0.00 0.00 92 1007.3
20260504050305 35 177 0.0 0.0 0.00 0.00 0.00 84 1007.5
20260504045802 35 177 0.0 0.0 0.00 0.00 0.00 84 1007.6
20260504045304 35 177 0.0 0.0 0.00 0.00 0.00 84 1007.9
20260504044800 35 177 0.0 0.0 0.00 0.00 0.00 83 1007.8
20260504044258 35 177 0.0 0.0 0.00 0.00 0.00 85 1007.9
20260504043754 34 177 0.0 0.0 0.00 0.00 0.00 86 1007.9
20260504043251 34 177 0.0 0.0 0.00 0.00 0.00 86 1008.0
20260504042749 34 177 0.0 0.0 0.00 0.00 0.00 87 1008.1
20260504042245 33 177 0.0 0.0 0.00 0.00 0.00 88 1008.1
20260504041742 33 177 0.0 0.0 0.00 0.00 0.00 88 1008.3
20260504041238 33 177 0.0 0.0 0.00 0.00 0.00 89 1008.2
20260504040734 33 177 0.0 0.0 0.00 0.00 0.00 89 1008.2
20260504040232 32 177 0.0 0.0 0.00 0.00 0.00 89 1008.2
20260504035728 32 177 0.0 0.0 0.00 0.00 0.00 89 1008.1
20260504035225 32 178 0.0 0.0 0.00 0.00 0.00 89 1008.2
20260504034723 32 178 0.0 0.0 0.00 0.00 0.00 90 1008.3
20260504034220 31 178 0.0 0.0 0.00 0.00 0.00 90 1008.2
20260504033717 31 177 0.0 0.0 0.00 0.00 0.00 90 1008.1
20260504033214 32 179 0.0 0.0 0.00 0.00 0.00 89 1008.3
20260504032711 32 178 0.0 0.0 0.00 0.00 0.00 89 1008.3
20260504032209 32 179 0.0 0.0 0.00 0.00 0.00 89 1008.1
20260504031705 32 178 0.0 0.0 0.00 0.00 0.00 89 1008.3
20260504031202 32 178 0.0 0.0 0.00 0.00 0.00 89 1008.4
20260504030658 32 178 0.0 0.0 0.00 0.00 0.00 88 1008.1
20260504030155 33 178 0.0 1.0 0.00 0.00 0.00 88 1008.3
20260504025652 33 180 0.0 0.0 0.00 0.00 0.00 88 1008.4
20260504025149 33 180 0.0 0.0 0.00 0.00 0.00 87 1008.4
20260504024646 33 181 0.0 0.0 0.00 0.00 0.00 87 1008.3
20260504024142 33 180 0.0 0.0 0.00 0.00 0.00 87 1008.3
20260504023639 33 179 0.0 0.0 0.00 0.00 0.00 87 1008.4
20260504023135 33 180 0.0 0.0 0.00 0.00 0.00 87 1008.2
20260504022631 33 180 0.0 0.0 0.00 0.00 0.00 87 1008.3
20260504022127 33 180 0.0 0.0 0.00 0.00 0.00 87 1008.2
20260504021626 33 181 0.0 0.0 0.00 0.00 0.00 86 1008.2
20260504021122 34 181 0.0 0.0 0.00 0.00 0.00 86 1008.2
20260504020619 34 181 0.0 0.0 0.00 0.00 0.00 85 1008.2
20260504020115 35 181 0.0 0.0 0.00 0.00 0.00 85 1008.3
20260504015612 34 181 0.0 0.0 0.00 0.00 0.00 84 1008.3
20260504015108 35 181 0.0 0.0 0.00 0.00 0.00 83 1008.3
20260504014604 35 181 0.0 0.0 0.00 0.00 0.00 83 1008.3
20260504014101 36 181 0.0 0.0 0.00 0.00 0.00 82 1008.3
20260504013559 36 181 0.0 0.0 0.00 0.00 0.00 81 1008.2
20260504013055 36 181 0.0 0.0 0.00 0.00 0.00 81 1008.3
20260504012553 36 182 0.0 0.0 0.00 0.00 0.00 81 1008.1
20260504012051 36 182 0.0 0.0 0.00 0.00 0.00 81 1008.1
20260504011547 37 182 0.0 0.0 0.00 0.00 0.00 80 1008.0
20260504011043 37 182 0.0 0.0 0.00 0.00 0.00 79 1008.1
20260504010539 37 182 0.0 0.0 0.00 0.00 0.00 79 1008.1
20260504010035 37 182 0.0 0.0 0.00 0.00 0.00 79 1008.0
20260504005532 37 182 0.0 0.0 0.00 0.00 0.00 79 1008.1
20260504005030 37 182 0.0 0.0 0.00 0.00 0.00 78 1007.8
20260504004527 37 182 0.0 0.0 0.00 0.00 0.00 77 1007.8
20260504004024 38 182 0.0 0.0 0.00 0.00 0.00 76 1007.8
20260504003520 38 182 0.0 0.0 0.00 0.00 0.00 75 1007.8
20260504003017 39 182 0.0 0.0 0.00 0.00 0.00 74 1007.7
20260504002514 39 182 0.0 0.0 0.00 0.00 0.00 74 1007.6
20260504002012 40 182 0.0 0.0 0.00 0.00 0.00 73 1007.7
20260504001509 40 182 0.0 0.0 0.00 0.00 0.00 72 1007.5
20260504001005 41 182 0.0 0.0 0.00 0.00 0.00 71 1007.6
20260504000503 41 181 0.0 0.0 0.00 0.00 0.00 71 1007.5
20260504000000 42 181 0.0 0.0 0.00 0.00 0.00 68 1007.4
20260503235458 42 181 0.0 0.0 0.00 0.00 0.00 67 1007.4
20260503234954 43 181 0.0 0.0 0.00 0.00 0.00 62 1007.6
20260503234452 43 181 0.0 0.0 0.00 0.00 0.00 62 1007.4
20260503233950 44 181 0.0 0.0 0.00 0.00 0.00 61 1007.6
20260503233446 44 181 0.0 0.0 0.00 0.00 0.00 61 1007.4
20260503232943 45 182 0.0 0.0 0.00 0.00 0.00 60 1007.4
20260503232440 45 183 0.0 0.0 0.00 0.00 0.00 59 1007.5
20260503231938 45 182 0.0 0.0 0.00 0.00 0.00 57 1007.3
20260503231435 46 182 0.0 0.0 0.00 0.00 0.00 56 1007.4
20260503230931 46 182 0.0 0.0 0.00 0.00 0.00 56 1007.3
20260503230427 47 183 0.0 0.0 0.00 0.00 0.00 51 1007.3
20260503225925 48 186 0.0 0.0 0.00 0.00 0.00 48 1007.5
20260503225422 48 175 1.0 2.0 0.00 0.00 0.00 48 1007.3
20260503224918 48 176 0.0 0.0 0.00 0.00 0.00 49 1007.5
20260503224415 48 187 0.0 0.0 0.00 0.00 0.00 46 1007.4
20260503223912 48 178 0.0 1.0 0.00 0.00 0.00 46 1007.3
20260503223411 49 180 0.0 0.0 0.00 0.00 0.00 47 1007.3
20260503222911 49 185 0.0 0.0 0.00 0.00 0.00 45 1007.1
20260503222409 50 20 2.0 2.0 0.00 0.00 0.00 47 1007.1
20260503221907 49 33 2.0 2.0 0.00 0.00 0.00 47 1007.5
20260503221406 49 187 0.0 0.0 0.00 0.00 0.00 47 1007.3
20260503220902 49 177 0.0 1.0 0.00 0.00 0.00 46 1007.1
20260503220358 49 171 0.0 0.0 0.00 0.00 0.00 48 1007.1
20260503215855 49 347 2.0 3.0 0.00 0.00 0.00 46 1007.4
20260503215352 49 335 2.0 3.0 0.00 0.00 0.00 47 1007.1
20260503214850 49 173 3.0 5.0 0.00 0.00 0.00 46 1007.4
20260503214347 49 172 0.0 0.0 0.00 0.00 0.00 47 1007.4
20260503213844 49 77 4.0 6.0 0.00 0.00 0.00 46 1007.4
20260503213342 50 16 3.0 3.0 0.00 0.00 0.00 46 1007.1
20260503212839 49 178 0.0 0.0 0.00 0.00 0.00 45 1007.3
20260503212337 49 164 3.0 3.0 0.00 0.00 0.00 46 1007.1
20260503211833 49 169 1.0 2.0 0.00 0.00 0.00 48 1007.4
20260503211330 48 174 0.0 0.0 0.00 0.00 0.00 48 1007.5
20260503210825 48 181 1.0 2.0 0.00 0.00 0.00 47 1007.1
20260503210323 49 172 1.0 1.0 0.00 0.00 0.00 48 1007.3
20260503205818 49 178 0.0 1.0 0.00 0.00 0.00 45 1007.0
20260503205315 49 345 3.0 5.0 0.00 0.00 0.00 46 1007.0
20260503204811 49 176 1.0 1.0 0.00 0.00 0.00 48 1006.8
20260503204309 50 159 4.0 5.0 0.00 0.00 0.00 46 1006.9
20260503203806 49 185 0.0 1.0 0.00 0.00 0.00 48 1007.0
20260503203303 48 189 0.0 0.0 0.00 0.00 0.00 49 1007.0
20260503202800 48 176 2.0 3.0 0.00 0.00 0.00 48 1007.3
20260503202258 48 172 1.0 1.0 0.00 0.00 0.00 48 1007.3
20260503201755 48 183 0.0 0.0 0.00 0.00 0.00 47 1007.1
20260503201253 48 172 0.0 0.0 0.00 0.00 0.00 49 1007.1
20260503200750 48 174 0.0 0.0 0.00 0.00 0.00 48 1007.3
20260503200246 48 175 3.0 5.0 0.00 0.00 0.00 48 1007.1
20260503195743 48 195 1.0 1.0 0.00 0.00 0.00 49 1007.3
20260503195240 48 135 2.0 3.0 0.00 0.00 0.00 50 1007.3
20260503194738 48 193 0.0 0.0 0.00 0.00 0.00 52 1007.5
20260503194233 47 187 5.0 8.0 0.00 0.00 0.00 50 1007.7
20260503193729 47 115 2.0 2.0 0.00 0.00 0.00 52 1007.6
20260503193225 47 106 0.0 1.0 0.00 0.00 0.00 50 1007.7
20260503192721 47 170 0.0 0.0 0.00 0.00 0.00 50 1007.7
20260503192216 48 176 0.0 0.0 0.00 0.00 0.00 51 1007.7
20260503191713 48 180 1.0 2.0 0.00 0.00 0.00 51 1007.8
20260503191211 48 179 0.0 0.0 0.00 0.00 0.00 49 1007.7
20260503190707 48 42 7.0 8.0 0.00 0.00 0.00 48 1007.7
20260503190204 48 264 2.0 2.0 0.00 0.00 0.00 49 1007.7
20260503185702 48 170 1.0 5.0 0.00 0.00 0.00 49 1007.9
20260503185156 48 174 0.0 1.0 0.00 0.00 0.00 52 1007.9
20260503184651 48 355 4.0 6.0 0.00 0.00 0.00 51 1007.7
20260503184148 48 30 5.0 9.0 0.00 0.00 0.00 47 1007.8
20260503183644 48 180 0.0 1.0 0.00 0.00 0.00 50 1007.7
20260503183142 47 151 1.0 2.0 0.00 0.00 0.00 48 1007.7
20260503182640 48 177 2.0 2.0 0.00 0.00 0.00 47 1007.9
20260503182139 48 242 2.0 2.0 0.00 0.00 0.00 48 1007.7
20260503181635 48 148 1.0 1.0 0.00 0.00 0.00 47 1007.9
20260503181132 48 182 1.0 2.0 0.00 0.00 0.00 48 1007.6
20260503180628 48 191 0.0 1.0 0.00 0.00 0.00 46 1007.8
20260503180126 49 290 0.0 2.0 0.00 0.00 0.00 44 1007.7
20260503175623 49 7 4.0 5.0 0.00 0.00 0.00 43 1007.4
20260503175120 48 345 5.0 7.0 0.00 0.00 0.00 43 1007.6
20260503174617 48 97 3.0 6.0 0.00 0.00 0.00 42 1007.7
20260503174114 48 348 3.0 5.0 0.00 0.00 0.00 41 1007.6
20260503173609 48 94 1.0 1.0 0.00 0.00 0.00 44 1007.5
20260503173106 48 222 1.0 1.0 0.00 0.00 0.00 42 1007.5
20260503172603 48 3 6.0 8.0 0.00 0.00 0.00 42 1007.7
20260503172100 48 312 3.0 5.0 0.00 0.00 0.00 44 1007.8
20260503171556 49 32 8.0 13.0 0.00 0.00 0.00 45 1007.6
20260503171054 48 252 1.0 1.0 0.00 0.00 0.00 47 1007.4
20260503170550 49 338 5.0 8.0 0.00 0.00 0.00 47 1007.4
20260503150943 45 8 3.0 3.0 0.00 0.00 0.00 54 1008.6
20260503150439 46 17 6.0 7.0 0.00 0.00 0.00 53 1008.5
20260503131332 44 7 2.0 3.0 0.00 0.00 0.00 75 1009.2
20260503130830 44 180 1.0 2.0 0.00 0.00 0.00 75 1009.2
20260503130327 43 170 0.0 1.0 0.00 0.00 0.00 75 1009.3